This demonstration page uses our WeatherBlox Daily Observations layout. Learn more.

Left ArrowRight Arrow

36.17497, -115.13722

Hourly Observations for July 18, 2017

Temp ( °F °C ) Dew Point ( °F °C ) Humidity (%) Winds ( mph kmh ) Pressure ( in mb ) Visibility ( mi km ) Precip ( " mm )
12:53 am 00:53 Clear 93 33.9 60 15.6 33 33 S 10 17 29.76 1008 10 16 N/A
1:53 am 01:53 Clear 92 33.3 60 15.6 34 34 S 7 11 29.75 1008 10 16 N/A
3:53 am 03:53 Clear 90 32.2 61 16.1 38 38 SSE 13 20 29.78 1008 10 16 N/A
4:53 am 04:53 Clear 88 31.1 62 16.7 42 42 SE 7 11 29.80 1009 10 16 N/A
5:53 am 05:53 Sunny 85 29.4 64 17.8 50 50 E 7 11 29.83 1010 10 16 N/A
6:53 am 06:53 Sunny 87 30.6 64 17.8 46 46 E 10 17 29.85 1011 10 16 N/A
7:53 am 07:53 Sunny 90 32.2 62 16.7 39 39 ESE 13 20 29.87 1012 10 16 N/A
8:53 am 08:53 Sunny 92 33.3 61 16.1 36 36 ESE 13 20 29.88 1012 10 16 N/A
9:53 am 09:53 Sunny 94 34.4 58 14.4 30 30 SE 10 17 29.88 1012 10 16 N/A
10:53 am 10:53 Sunny 97 36.1 59 15 28 28 ESE 15 24 29.87 1012 10 16 N/A
11:53 am 11:53 Sunny 100 37.8 55 12.8 22 22 ESE 14 22 29.86 1011 10 16 N/A
12:53 pm 12:53 Sunny 103 39.4 51 10.6 18 18 SSE 10 17 29.83 1010 10 16 N/A
1:53 pm 13:53 Sunny 106 41.1 45 7.2 13 13 SSE 15 24 29.80 1009 10 16 N/A
2:53 pm 14:53 Sunny 106 41.1 44 6.7 12 12 SSE 13 20 29.78 1008 10 16 N/A
3:53 pm 15:53 Sunny 108 42.2 41 5 10 10 SW 17 28 29.75 1008 10 16 N/A
4:02 pm 16:02 Sunny 108 42.2 40 4.4 10 10 SSW 16 26 29.56 1001 10 16 N/A
4:53 pm 16:53 Sunny 106 41.1 41 5 11 11 S 16 26 29.76 1008 10 16 N/A
5:53 pm 17:53 Sunny 101 38.3 58 14.4 24 24 SSE 22 35 29.78 1009 10 16 N/A
6:53 pm 18:53 Sunny 101 38.3 56 13.3 22 22 SSE 17 28 29.78 1008 10 16 N/A
7:36 pm 19:36 Sunny 97 36.1 59 15 28 28 S 17 28 29.62 1003 10 16 N/A
7:53 pm 19:53 Sunny 96 35.6 59 15 29 29 S 13 20 29.78 1008 10 16 N/A
8:53 pm 20:53 Clear 97 36.1 55 12.8 24 24 S 15 24 29.81 1010 10 16 N/A
9:53 pm 21:53 Clear 95 35 56 13.3 27 27 SSE 14 22 29.84 1010 10 16 N/A
10:53 pm 22:53 Clear with Nearby Thunderstorms 93 33.9 60 15.6 33 33 ESE 10 17 29.83 1010 10 16 N/A
11:36 pm 23:36 Clear with Thunderstorms 93 33.9 60 15.6 33 33 ESE 12 19 29.71 1006 10 16 N/A
11:51 pm 23:51 Clear with Nearby Thunderstorms 91 33 61 16 36 36 ESE 9 15 29.71 1006 10 16 N/A
11:53 pm 23:53 Clear with Nearby Thunderstorms 92 33.3 60 15.6 34 34 ESE 10 17 29.84 1011 10 16 N/A

Powered by AerisWeather